"2010-05-29 00:00:00",153100,9.27,187,2.724,0.497,23.83,111.4192,28.54,29.44,10.71,0,111.2,13.13,29.39,149.0
"2010-05-29 00:00:30",153101,9.57,183,3.075,0.406,23.87,111.4199,28.54,29.44,10.77,0,111.2,13.13,29.40,145.0
"2010-05-29 00:01:00",153102,9.48,184.2,1.587,0.406,23.88,111.4199,28.54,29.44,10.76,0,111.2,13.13,29.40,146.2
"2010-05-29 00:01:30",153103,10.22,186,2.649,0.588,23.99,111.4201,28.55,29.43,10.28,0,111.2,13.13,29.40,148.0
"2010-05-29 00:02:00",153104,11.14,194.3,3.012,0.403,23.97,111.4213,28.55,29.45,10.25,0,111.2,13.13,29.40,156.3
"2010-05-29 00:02:30",153105,10.41,196.5,3.528,0.555,23.94,111.4265,28.56,29.45,10.3,0,111.2,13.13,29.41,158.5
"2010-05-29 00:03:00",153106,10.32,185.5,4.09,0.208,23.99,111.4369,28.59,29.47,10.35,0,111.2,13.13,29.44,147.5
"2010-05-29 00:03:30",153107,9.9,178.6,1.883,0.317,23.84,111.4456,28.61,29.49,10.44,0,111.2,13.13,29.46,140.6
"2010-05-29 00:04:00",153108,10.37,181.2,2.204,0.385,23.9,111.4486,28.62,29.49,10.3,0,111.2,13.13,29.47,143.2
"2010-05-29 00:04:30",153109,10.02,182.5,1.849,0.437,23.94,111.4517,28.63,29.51,10.27,0,111.2,13.12,29.48,144.5
"2010-05-29 00:05:00",153110,10.1,182.9,2.375,0.38,23.98,111.4523,28.63,29.5,10.34,0,111.2,13.13,29.48,144.9
"2010-05-29 00:05:30",153111,11.15,187.1,1.752,0.618,24.02,111.4526,28.63,29.52,10.48,0,111.2,13.13,29.48,149.1
"2010-05-29 00:06:00",153112,11.8,188.1,4.375,0.58,24.08,111.4517,28.63,29.51,10.45,0,111.2,13.13,29.48,150.1
"2010-05-29 00:06:30",153113,11.87,191.7,3.084,0.58,24.1,111.4526,28.63,29.52,10.4,0,111.2,13.13,29.48,153.7
"2010-05-29 00:07:00",153114,11.17,193.6,5.044,0.536,24.02,111.4532,28.63,29.54,10.67,0,111.2,13.13,29.48,155.6
"2010-05-29 00:07:30",153115,11.49,196.9,3.65,0.461,23.97,111.452,28.63,29.55,10.85,0,111.2,13.13,29.48,158.9
"2010-05-29 00:08:00",153116,11.81,196.1,1.809,0.554,24.03,111.4546,28.63,29.55,10.24,0,111.2,13.13,29.49,158.1
"2010-05-29 00:08:30",153117,11.45,194.2,1.357,0.453,24.06,111.4593,28.65,29.55,10.12,0,111.2,13.13,29.50,156.2
"2010-05-29 00:09:00",153118,11.7,194,1.593,0.402,24.02,111.4658,28.66,29.57,10.04,0,111.2,13.13,29.51,156.0
"2010-05-29 00:09:30",153119,11.15,192.1,1.717,0.284,24.08,111.4744,28.69,29.58,10.22,0,111.2,13.13,29.54,154.1
"2010-05-29 00:10:00",153120,11.15,189,2.164,0.805,24.01,111.4764,28.69,29.58,10.36,0,111.2,13.13,29.54,151.0
"2010-05-29 00:10:30",153121,12.22,190.8,1.686,0.362,24.19,111.4793,28.7,29.57,10.05,0,111.2,13.13,29.55,152.8
"2010-05-29 00:11:00",153122,12.37,189.8,1.608,0.315,24.23,111.4848,28.71,29.59,9.95,0,111.2,13.13,29.56,151.8
"2010-05-29 00:11:30",153123,12.03,192.4,1.492,0.339,24.14,111.4857,28.71,29.59,10,0,111.2,13.13,29.57,154.4
"2010-05-29 00:12:00",153124,11.87,193.8,1.748,0.625,24.08,111.4854,28.71,29.59,10.12,0,111.2,13.13,29.57,155.8
"2010-05-29 00:12:30",153125,12.34,196.2,3.008,0.286,24.07,111.4857,28.71,29.6,10.3,0,111.2,13.13,29.57,158.2
"2010-05-29 00:13:00",153126,11.36,189.5,3.945,0.614,24.06,111.4857,28.71,29.6,10.46,0,111.2,13.13,29.57,151.5
"2010-05-29 00:13:30",153127,10.48,182.1,2.491,0.334,23.95,111.4854,28.71,29.61,10.43,0,111.2,13.13,29.57,144.1
"2010-05-29 00:14:00",153128,11.25,181.6,2.866,0.413,23.94,111.4854,28.71,29.62,10.74,0,111.2,13.13,29.57,143.6
"2010-05-29 00:14:30",153129,11.31,176.9,1.287,0.592,23.9,111.4857,28.71,29.61,11.23,0,111.2,13.13,29.57,138.9
"2010-05-29 00:15:00",153130,12.27,180.4,2.463,0.402,23.93,111.4857,28.71,29.62,11.19,0,111.2,13.13,29.57,142.4
"2010-05-29 00:15:30",153131,11.82,179.7,4.346,0.511,23.98,111.4857,28.71,29.63,11.19,0,111.2,13.13,29.57,141.7
"2010-05-29 00:16:00",153132,11.02,193.7,2.953,0.748,24.06,111.4866,28.72,29.62,10.83,0,111.2,13.13,29.57,155.7
"2010-05-29 00:16:30",153133,10.89,186.7,4.652,0.488,23.98,111.483,28.71,29.61,11.06,0,111.2,13.13,29.56,148.7
"2010-05-29 00:17:00",153134,10.9,185.8,5.179,0.349,23.97,111.4665,28.66,29.61,11.09,0,111.2,13.13,29.52,147.8
"2010-05-29 00:17:30",153135,10.81,187.3,5.505,0.377,23.8,111.4546,28.63,29.62,11.35,0,111.2,13.13,29.49,149.3
"2010-05-29 00:18:00",153136,11.49,182.4,1.856,0.794,23.98,111.4526,28.63,29.59,11.46,0,111.2,13.13,29.48,144.4
"2010-05-29 00:18:30",153137,11.88,182.9,4.018,0.688,23.94,111.4465,28.61,29.58,11.25,0,111.2,13.13,29.46,144.9
"2010-05-29 00:19:00",153138,11.7,191.8,2.275,0.445,24.11,111.4315,28.57,29.55,10.75,0,111.2,13.13,29.43,153.8
"2010-05-29 00:19:30",153139,12.03,188,1.46,0.348,24.18,111.4313,28.57,29.55,10.12,0,111.2,13.13,29.43,150.0
"2010-05-29 00:20:00",153140,12.2,189.7,2.217,0.38,24.16,111.4362,28.59,29.54,10.07,0,111.2,13.13,29.44,151.7
"2010-05-29 00:20:30",153141,11.91,192.6,3.082,0.631,24.06,111.4415,28.6,29.53,10.1,0,111.2,13.13,29.45,154.6
"2010-05-29 00:21:00",153142,10.05,182.3,5.46,0.482,23.98,111.4423,28.6,29.53,10.5,0,111.2,13.13,29.45,144.3
"2010-05-29 00:21:30",153143,9.81,181.8,4.381,0.365,23.94,111.4425,28.6,29.55,10.59,0,111.2,13.13,29.45,143.8
"2010-05-29 00:22:00",153144,9.82,178.6,2.291,0.445,23.82,111.439,28.59,29.53,11.29,0,111.2,13.13,29.45,140.6
"2010-05-29 00:22:30",153145,9.95,186.1,1.824,0.38,24.05,111.4282,28.57,29.53,10.91,0,111.2,13.13,29.42,148.1
"2010-05-29 00:23:00",153146,10.33,181.8,2.437,0.774,23.91,111.4261,28.56,29.54,10.87,0,111.2,13.13,29.41,143.8
"2010-05-29 00:23:30",153147,10.13,184.7,3.466,0.53,23.98,111.4209,28.55,29.51,11.07,0,111.2,13.13,29.40,146.7
"2010-05-29 00:24:00",153148,11.21,188.1,2.536,0.575,24.07,111.4192,28.54,29.5,11.15,0,111.2,13.13,29.39,150.1
"2010-05-29 00:24:30",153149,11.54,186.1,1.365,0.213,24.07,111.4208,28.55,29.5,10.86,0,111.2,13.13,29.40,148.1
"2010-05-29 00:25:00",153150,11.81,187.2,3.409,0.426,24.08,111.4199,28.54,29.48,10.8,0,111.2,13.13,29.40,149.2
"2010-05-29 00:25:30",153151,12.01,184.4,3.684,0.416,23.98,111.4205,28.55,29.48,10.46,0,111.2,13.13,29.40,146.4
"2010-05-29 00:26:00",153152,12.46,189.7,1.165,0.293,24.24,111.4214,28.55,29.5,10.25,0,111.2,13.13,29.40,151.7
"2010-05-29 00:26:30",153153,12.7,189.4,1.926,0.253,24.26,111.4248,28.56,29.5,10.22,0,111.2,13.13,29.41,151.4
"2010-05-29 00:27:00",153154,12.64,185.8,1.723,1.008,24.2,111.4307,28.57,29.5,10.32,0,111.2,13.13,29.42,147.8
"2010-05-29 00:27:30",153155,12.98,194.3,1.862,0.323,24.18,111.4408,28.6,29.49,10.44,0,111.2,13.13,29.45,156.3
"2010-05-29 00:28:00",153156,12.7,187.2,1.49,0.381,24.28,111.4534,28.63,29.5,10.39,0,111.2,13.13,29.48,149.2
"2010-05-29 00:28:30",153157,12.52,187.5,1.257,0.708,24.26,111.4573,28.64,29.52,10.4,0,111.2,13.13,29.49,149.5
"2010-05-29 00:29:00",153158,12.75,188.8,1.883,0.579,24.28,111.4573,28.64,29.53,10.28,0,111.2,13.13,29.49,150.8
"2010-05-29 00:29:30",153159,13.83,189.1,3.734,0.354,24.27,111.4576,28.64,29.55,10.32,0,111.2,13.13,29.49,151.1
"2010-05-29 00:30:00",153160,13.55,190.6,2.504,1.377,24.27,111.4601,28.65,29.55,10.44,0,111.2,13.13,29.50,152.6
"2010-05-29 00:30:30",153161,12.36,193.2,1.824,0.331,24.15,111.4595,28.65,29.55,10.45,0,111.2,13.13,29.50,155.2
"2010-05-29 00:31:00",153162,12.27,195.4,3.764,0.547,24.12,111.4581,28.64,29.55,10.53,0,111.2,13.13,29.49,157.4
"2010-05-29 00:31:30",153163,11.93,194,3.433,0.929,24.09,111.4604,28.65,29.57,10.62,0,111.2,13.13,29.50,156.0
"2010-05-29 00:32:00",153164,12.46,193.2,1.849,0.665,24.09,111.4607,28.65,29.57,10.75,0,111.2,13.13,29.50,155.2
"2010-05-29 00:32:30",153165,12.08,195,2.238,0.648,24.13,111.4596,28.65,29.58,10.67,0,111.2,13.13,29.50,157.0
"2010-05-29 00:33:00",153166,12.43,194.7,1.52,0.234,24.14,111.4591,28.65,29.57,10.63,0,111.2,13.13,29.50,156.7
"2010-05-29 00:33:30",153167,12.38,193.1,0.93,0.271,24.18,111.4579,28.64,29.58,10.55,0,111.2,13.14,29.49,155.1
"2010-05-29 00:34:00",153168,12.9,197.2,1.392,0.538,24.09,111.4593,28.65,29.58,10.58,0,111.2,13.14,29.50,159.2
"2010-05-29 00:34:30",153169,13.77,198,1.038,0.195,24.14,111.4636,28.66,29.58,10.56,0,111.2,13.13,29.51,160.0
"2010-05-29 00:35:00",153170,12.95,198.6,1.854,0.444,24.1,111.4643,28.66,29.59,10.53,0,111.2,13.14,29.51,160.6
"2010-05-29 00:35:30",153171,11.7,201.8,2.143,0.202,24.06,111.4635,28.66,29.59,10.44,0,111.2,13.13,29.51,163.8
"2010-05-29 00:36:00",153172,11.1,198.9,2.776,0.713,24.08,111.4624,28.65,29.59,10.44,0,111.2,13.13,29.51,160.9
"2010-05-29 00:36:30",153173,13.04,194.9,2.962,0.271,24.15,111.4591,28.65,29.57,10.58,0,111.2,13.13,29.50,156.9
"2010-05-29 00:37:00",153174,12.33,190.5,2.607,0.396,24.2,111.461,28.65,29.59,10.59,0,111.2,13.13,29.50,152.5
"2010-05-29 00:37:30",153175,12.71,192.8,1.72,0.154,24.2,111.4614,28.65,29.59,10.49,0,111.2,13.13,29.50,154.8
"2010-05-29 00:38:00",153176,12.74,192.6,1.724,0.274,24.19,111.467,28.67,29.58,10.51,0,111.2,13.13,29.52,154.6
"2010-05-29 00:38:30",153177,12.87,191.5,0.939,0.194,24.32,111.4667,28.67,29.58,10.4,0,111.2,13.13,29.52,153.5
"2010-05-29 00:39:00",153178,12.68,190.7,1.502,0.262,24.24,111.4679,28.67,29.56,10.43,0,111.2,13.13,29.52,152.7
"2010-05-29 00:39:30",153179,12.6,189.7,1.133,0.389,24.27,111.4676,28.67,29.59,10.5,0,111.2,13.13,29.52,151.7
"2010-05-29 00:40:00",153180,12.42,192.3,1.894,0.314,24.19,111.4707,28.68,29.57,10.5,0,111.2,13.13,29.53,154.3
"2010-05-29 00:40:30",153181,12.57,191.2,2.491,0.461,24.25,111.4704,28.67,29.57,10.47,0,111.2,13.13,29.53,153.2
"2010-05-29 00:41:00",153182,12.18,192.1,2.12,0.361,24.2,111.4686,28.67,29.58,10.47,0,111.2,13.13,29.52,154.1
"2010-05-29 00:41:30",153183,13.21,193.9,2.493,0.274,24.22,111.4707,28.68,29.57,10.44,0,111.2,13.14,29.53,155.9
"2010-05-29 00:42:00",153184,13.55,196.9,4.083,0.292,24.2,111.4717,28.68,29.58,10.49,0,111.2,13.14,29.53,158.9
"2010-05-29 00:42:30",153185,12.97,195.3,4.822,0.415,24.22,111.4707,28.68,29.58,10.56,0,111.2,13.14,29.53,157.3
"2010-05-29 00:43:00",153186,12.56,196.5,2.046,0.588,24.09,111.472,28.68,29.57,10.64,0,111.2,13.14,29.53,158.5
"2010-05-29 00:43:30",153187,12.4,194.7,3.758,0.476,24.18,111.4711,28.68,29.57,10.61,0,111.2,13.14,29.53,156.7
"2010-05-29 00:44:00",153188,13.44,197.5,2.397,0.364,24.16,111.4714,28.68,29.58,10.47,0,111.2,13.14,29.53,159.5
"2010-05-29 00:44:30",153189,13.49,196.3,1.706,0.579,24.2,111.472,28.68,29.57,10.42,0,111.2,13.14,29.53,158.3
"2010-05-29 00:45:00",153190,13.77,195.5,1.781,0.586,24.2,111.4748,28.69,29.58,10.56,0,111.2,13.14,29.54,157.5
"2010-05-29 00:45:30",153191,13.01,194.8,1.964,0.495,24.2,111.4761,28.69,29.56,10.55,0,111.2,13.14,29.54,156.8
"2010-05-29 00:46:00",153192,13.75,195.9,1.313,0.37,24.22,111.4747,28.69,29.56,10.41,0,111.2,13.14,29.54,157.9
"2010-05-29 00:46:30",153193,13.53,193.2,2.089,0.296,24.25,111.4743,28.68,29.56,10.4,0,111.2,13.14,29.54,155.2
"2010-05-29 00:47:00",153194,12.89,191.4,1.034,0.425,24.34,111.4745,28.69,29.56,10.41,0,111.2,13.14,29.54,153.4
"2010-05-29 00:47:30",153195,12.96,196.3,1.36,0.362,24.12,111.4743,28.68,29.56,10.48,0,111.2,13.14,29.54,158.3
"2010-05-29 00:48:00",153196,12.6,196.4,1.575,0.289,24.08,111.4743,28.68,29.57,10.56,0,111.2,13.14,29.54,158.4
"2010-05-29 00:48:30",153197,12.81,196.1,3.764,0.667,24.14,111.473,28.68,29.56,10.66,0,111.2,13.14,29.53,158.1
"2010-05-29 00:49:00",153198,12.48,196.9,3.506,0.41,24.16,111.4712,28.68,29.55,10.62,0,111.2,13.14,29.53,158.9
"2010-05-29 00:49:30",153199,12.01,198.4,1.567,0.418,24.04,111.4692,28.67,29.57,10.71,0,111.2,13.14,29.52,160.4
"2010-05-29 00:50:00",153200,11.93,195,2.145,0.503,24.07,111.4572,28.64,29.57,10.87,0,111.2,13.14,29.49,157.0
"2010-05-29 00:50:30",153201,13.52,190.5,1.811,0.604,24.32,111.4511,28.63,29.55,10.65,0,111.2,13.14,29.48,152.5
"2010-05-29 00:51:00",153202,13.98,192.8,1.334,0.477,24.31,111.4531,28.63,29.55,10.41,0,111.2,13.14,29.48,154.8
"2010-05-29 00:51:30",153203,13.17,193.9,2.77,0.402,24.23,111.4534,28.63,29.55,10.61,0,111.2,13.14,29.48,155.9
"2010-05-29 00:52:00",153204,12.87,195,2.3,0.644,24.17,111.4471,28.61,29.53,10.69,0,111.2,13.14,29.47,157.0
"2010-05-29 00:52:30",153205,12.65,197.6,3.262,0.311,24.15,111.446,28.61,29.55,10.54,0,111.2,13.14,29.46,159.6
"2010-05-29 00:53:00",153206,12.46,196.7,2.397,0.842,24.11,111.4464,28.61,29.53,10.52,0,111.2,13.13,29.46,158.7
"2010-05-29 00:53:30",153207,14.08,194,1.697,0.342,24.31,111.4467,28.61,29.53,10.36,0,111.2,13.13,29.47,156.0
"2010-05-29 00:54:00",153208,14.43,192.1,0.914,0.346,24.37,111.4477,28.62,29.53,10.47,0,111.2,13.13,29.47,154.1
"2010-05-29 00:54:30",153209,15.15,193.4,1.861,0.214,24.39,111.4507,28.62,29.53,10.53,0,111.2,13.13,29.48,155.4
"2010-05-29 00:55:00",153210,14.79,194,1.587,0.322,24.39,111.4527,28.63,29.53,10.55,0,111.2,13.13,29.48,156.0
"2010-05-29 00:55:30",153211,14.08,195.3,0.987,0.309,24.36,111.4554,28.64,29.53,10.43,0,111.2,13.13,29.49,157.3
"2010-05-29 00:56:00",153212,13.07,191.4,1.188,0.328,24.36,111.4593,28.65,29.54,10.52,0,111.2,13.13,29.50,153.4
"2010-05-29 00:56:30",153213,13.15,193.3,1.898,0.23,24.29,111.4601,28.65,29.54,10.72,0,111.2,13.13,29.50,155.3
"2010-05-29 00:57:00",153214,13.25,190.6,1.282,0.417,24.34,111.457,28.64,29.55,10.94,0,111.2,13.13,29.49,152.6
"2010-05-29 00:57:30",153215,13.26,191.5,1.213,0.304,24.31,111.4501,28.62,29.54,11.17,0,111.2,13.13,29.47,153.5
"2010-05-29 00:58:00",153216,13.75,192.8,1.41,0.438,24.31,111.4464,28.61,29.53,11.23,0,111.2,13.14,29.46,154.8
"2010-05-29 00:58:30",153217,13.84,189.9,1.75,0.323,24.38,111.4464,28.61,29.53,11.19,0,111.2,13.14,29.46,151.9
"2010-05-29 00:59:00",153218,13.35,188.1,1.032,0.223,24.3,111.4453,28.61,29.52,11.67,0,111.2,13.14,29.46,150.1
"2010-05-29 00:59:30",153219,13.72,186.5,2.592,0.25,24.24,111.4372,28.59,29.5,11.88,0,111.2,13.14,29.44,148.5
"2010-05-29 01:00:00",153220,14.98,189.2,2.447,0.378,24.32,111.4216,28.55,29.49,11.99,0,111.2,13.14,29.40,151.2
"2010-05-29 01:00:30",153221,14.65,187.4,2.183,0.401,24.34,111.4162,28.54,29.47,11.92,0,111.2,13.14,29.39,149.4
"2010-05-29 01:01:00",153222,14.35,187.5,2.416,0.297,24.27,111.4153,28.53,29.46,12.07,0,111.2,13.14,29.38,149.5
"2010-05-29 01:01:30",153223,14.5,185.3,0.861,0.232,24.25,111.4193,28.54,29.47,12.19,0,111.2,13.14,29.39,147.3
"2010-05-29 01:02:00",153224,14.03,184.5,1.773,0.284,24.28,111.413,28.53,29.45,12.22,0,111.2,13.14,29.38,146.5
"2010-05-29 01:02:30",153225,12.91,185.4,1.863,0.656,24.24,111.396,28.48,29.44,12.15,0,111.2,13.14,29.33,147.4
"2010-05-29 01:03:00",153226,12.9,187.9,1.918,0.331,24.25,111.3885,28.46,29.41,12.18,0,111.2,13.14,29.32,149.9
"2010-05-29 01:03:30",153227,12.32,184.7,1.173,0.3,24.09,111.3878,28.46,29.4,12.37,0,111.2,13.14,29.31,146.7
"2010-05-29 01:04:00",153228,13.11,183.6,1.868,0.316,24.1,111.3872,28.46,29.4,12.52,0,111.2,13.14,29.31,145.6
"2010-05-29 01:04:30",153229,13.72,184,1.816,0.261,24.15,111.373,28.42,29.36,12.51,0,111.2,13.14,29.28,146.0
"2010-05-29 01:05:00",153230,14.01,182,2.125,0.471,24.05,111.3587,28.39,29.34,12.63,0,111.2,13.14,29.24,144.0
"2010-05-29 01:05:30",153231,13.98,183.1,2.175,0.292,24.15,111.3544,28.38,29.33,12.72,0,111.2,13.14,29.23,145.1
"2010-05-29 01:06:00",153232,13.91,180.4,2.085,0.438,23.96,111.3542,28.38,29.33,12.82,0,111.2,13.14,29.23,142.4
"2010-05-29 01:06:30",153233,13.6,186.6,2.184,0.303,24.14,111.3522,28.37,29.3,12.92,0,111.2,13.14,29.22,148.6
"2010-05-29 01:07:00",153234,14.09,184.5,2.672,0.689,24.06,111.33,28.31,29.3,12.98,0,111.2,13.14,29.16,146.5
"2010-05-29 01:07:30",153235,14.31,183.9,1.905,0.717,24.1,111.3213,28.29,29.27,13.03,0,111.2,13.14,29.14,145.9
"2010-05-29 01:08:00",153236,14.06,188.5,1.833,0.352,24.31,111.3208,28.29,29.24,12.99,0,111.2,13.14,29.14,150.5
"2010-05-29 01:08:30",153237,14.24,184.2,2.227,0.308,24.17,111.3177,28.28,29.24,13.19,0,111.2,13.14,29.13,146.2
"2010-05-29 01:09:00",153238,13.73,183.2,1.772,0.24,24.2,111.2997,28.24,29.23,13.23,0,111.2,13.14,29.09,145.2
"2010-05-29 01:09:30",153239,13.47,180.8,1.301,0.268,24,111.2927,28.22,29.2,13.35,0,111.2,13.14,29.07,142.8
"2010-05-29 01:10:00",153240,13.8,183.5,1.196,0.479,24.22,111.2871,28.2,29.18,13.39,0,111.2,13.14,29.05,145.5
"2010-05-29 01:10:30",153241,14.76,183.8,2.104,0.361,24.32,111.2871,28.2,29.17,13.05,0,111.2,13.14,29.05,145.8
"2010-05-29 01:11:00",153242,14.51,184.3,2.139,1.021,24.26,111.2871,28.2,29.15,12.94,0,111.2,13.14,29.05,146.3
"2010-05-29 01:11:30",153243,14.12,183,1.38,0.424,24.12,111.2871,28.2,29.14,13.26,0,111.2,13.14,29.05,145.0
"2010-05-29 01:12:00",153244,14.64,183.9,1.72,0.771,24.26,111.2862,28.2,29.13,13.1,0,111.2,13.14,29.05,145.9
"2010-05-29 01:12:30",153245,15.02,182.9,2.089,0.302,24.18,111.2806,28.19,29.12,13.1,0,111.2,13.14,29.04,144.9
"2010-05-29 01:13:00",153246,14.67,183.6,3.441,0.412,24.23,111.2716,28.16,29.13,13.14,0,111.2,13.14,29.01,145.6
"2010-05-29 01:13:30",153247,13.73,186.5,2.392,0.375,24.3,111.2652,28.15,29.12,13.13,0,111.2,13.14,29.00,148.5
"2010-05-29 01:14:00",153248,14.53,183.4,2.833,0.339,24.16,111.2615,28.14,29.1,13.17,0,111.2,13.14,28.99,145.4
"2010-05-29 01:14:30",153249,14.99,186.2,1.555,0.483,24.37,111.2559,28.12,29.1,13.12,0,111.2,13.15,28.97,148.2
"2010-05-29 01:15:00",153250,15.26,185.7,1.644,0.421,24.34,111.2539,28.12,29.09,13.04,0,111.2,13.15,28.97,147.7
"2010-05-29 01:15:30",153251,14.63,186.1,2.373,0.607,24.34,111.2534,28.12,29.08,12.99,0,111.2,13.15,28.97,148.1
"2010-05-29 01:16:00",153252,15.04,185.6,1.666,0.405,24.36,111.2534,28.12,29.07,12.92,0,111.2,13.15,28.97,147.6
"2010-05-29 01:16:30",153253,15.82,184.8,1.852,0.369,24.33,111.2534,28.12,29.08,12.95,0,111.2,13.15,28.97,146.8
"2010-05-29 01:17:00",153254,14.99,185.8,1.357,0.353,24.39,111.2534,28.12,29.06,12.85,0,111.2,13.15,28.97,147.8
"2010-05-29 01:17:30",153255,14.21,183.2,2.073,0.276,24.11,111.2534,28.12,29.06,13.07,0,111.1,13.15,28.97,145.2
"2010-05-29 01:18:00",153256,14.33,183.7,2.14,0.37,24.14,111.2534,28.12,29.06,13.24,0,111.2,13.15,28.97,145.7
"2010-05-29 01:18:30",153257,14.6,185.5,1.628,1.122,24.27,111.2494,28.11,29.07,13.2,0,111.2,13.15,28.96,147.5
"2010-05-29 01:19:00",153258,15.41,184.7,2.308,0.664,24.4,111.2436,28.09,29.04,12.84,0,111.1,13.15,28.94,146.7
"2010-05-29 01:19:30",153259,15.05,182.6,2.301,0.629,24.18,111.2478,28.1,29.05,12.89,0,111.1,13.15,28.95,144.6
"2010-05-29 01:20:00",153260,14.17,183,2.917,0.669,24.12,111.2414,28.09,29.04,13.23,0,111.1,13.15,28.94,145.0
"2010-05-29 01:20:30",153261,14.57,181.6,1.265,0.992,24.13,111.2404,28.08,29.03,13.11,0,111.1,13.15,28.93,143.6
"2010-05-29 01:21:00",153262,15.37,181.3,1.463,0.607,24.14,111.2373,28.08,29.03,13.02,0,111.1,13.15,28.93,143.3
"2010-05-29 01:21:30",153263,15.27,184.5,1.95,0.424,24.38,111.2416,28.09,29.03,12.77,0,111.1,13.15,28.94,146.5
"2010-05-29 01:22:00",153264,14.62,179.3,2.522,0.766,24.09,111.242,28.09,29.03,13.04,0,111.1,13.15,28.94,141.3
"2010-05-29 01:22:30",153265,15.7,180.6,1.899,0.592,24.21,111.2446,28.09,29.03,12.79,0,111.1,13.15,28.94,142.6
"2010-05-29 01:23:00",153266,15.44,181.7,3.232,0.52,24.23,111.2487,28.1,29.04,12.82,0,111.1,13.15,28.95,143.7
"2010-05-29 01:23:30",153267,15.77,180,2.212,0.651,24.17,111.2481,28.1,29.03,12.88,0,111.1,13.15,28.95,142.0
"2010-05-29 01:24:00",153268,15.97,183.5,2.475,0.542,24.29,111.2522,28.11,29.04,12.75,0,111.1,13.15,28.96,145.5
"2010-05-29 01:24:30",153269,15.64,184.7,2.767,0.606,24.46,111.2546,28.12,29.03,12.75,0,111.1,13.15,28.97,146.7
"2010-05-29 01:25:00",153270,14.68,182.6,2.809,0.398,24.35,111.2638,28.14,29.05,12.52,0,111.1,13.15,28.99,144.6
"2010-05-29 01:25:30",153271,15.09,181.8,2.935,0.605,24.33,111.2681,28.15,29.04,12.71,0,111.1,13.15,29.00,143.8
"2010-05-29 01:26:00",153272,14.99,183.5,3.626,0.403,24.29,111.269,28.16,29.05,13.2,0,111.1,13.15,29.01,145.5
"2010-05-29 01:26:30",153273,14.81,183.6,2.344,0.489,24.39,111.2651,28.15,29.05,12.71,0,111.1,13.15,29.00,145.6
"2010-05-29 01:27:00",153274,14.05,183.8,2.02,0.562,24.27,111.2597,28.13,29.06,13.03,0,111.1,13.15,28.98,145.8
"2010-05-29 01:27:30",153275,12.79,180.5,3.441,0.476,24.09,111.2556,28.12,29.03,13.31,0,111.1,13.15,28.97,142.5
"2010-05-29 01:28:00",153276,12.48,177.5,2.097,0.605,23.88,111.2519,28.11,29.04,14.22,0,111.1,13.15,28.96,139.5
"2010-05-29 01:28:30",153277,12.95,179.5,4.128,0.504,24.11,111.2468,28.1,29.04,14.03,0,111.1,13.15,28.95,141.5
"2010-05-29 01:29:00",153278,13.36,177,1.558,0.449,23.98,111.2475,28.1,29.04,14.43,0,111.1,13.15,28.95,139.0
"2010-05-29 01:29:30",153279,13.99,178.4,1.108,0.487,24.07,111.243,28.09,29.02,14.45,0,111.1,13.15,28.94,140.4
"2010-05-29 01:30:00",153280,14.84,176.3,1.325,0.512,23.9,111.2256,28.05,28.99,14.88,0,111.1,13.15,28.89,138.3
"2010-05-29 01:30:30",153281,15.77,177.9,1.544,0.367,24,111.22,28.03,28.99,15.06,0,111.1,13.15,28.88,139.9
"2010-05-29 01:31:00",153282,17.22,177.6,1.306,0.597,23.99,111.2169,28.02,28.99,15.3,0,111.1,13.15,28.87,139.6
"2010-05-29 01:31:30",153283,16.65,179.8,2.164,0.891,24.14,111.2176,28.02,28.97,15.41,0,111.1,13.15,28.87,141.8
"2010-05-29 01:32:00",153284,18.02,177.6,2.011,0.853,24.05,111.2101,28.01,28.96,15.71,0,111.1,13.15,28.85,139.6
"2010-05-29 01:32:30",153285,17.66,177,2.481,1.042,24.01,111.1917,27.96,28.95,15.97,0,111.1,13.15,28.81,139.0
"2010-05-29 01:33:00",153286,18.49,177.2,1.526,0.35,23.97,111.1895,27.95,28.93,16.57,0,111.1,13.16,28.80,139.2
"2010-05-29 01:33:30",153287,18.4,176.9,1.297,0.407,24.14,111.1707,27.9,28.89,16.13,0,111.1,13.16,28.75,138.9
"2010-05-29 01:34:00",153288,17.79,177.4,1.195,0.417,24.11,111.1563,27.87,28.86,15.97,0,111.1,13.16,28.72,139.4
"2010-05-29 01:34:30",153289,17.64,177.1,2.247,0.4,23.82,111.1518,27.86,28.85,16.87,0,111.1,13.16,28.70,139.1
"2010-05-29 01:35:00",153290,18.79,179.5,2.121,0.715,23.88,111.1296,27.8,28.82,17.02,0,111.1,13.16,28.65,141.5
"2010-05-29 01:35:30",153291,18.65,181.2,1.726,0.287,23.98,111.1094,27.75,28.78,16.72,0,111.1,13.16,28.59,143.2
"2010-05-29 01:36:00",153292,18.39,182.5,2.067,0.397,23.99,111.0819,27.68,28.74,16.75,0,111.1,13.16,28.52,144.5
"2010-05-29 01:36:30",153293,17.97,183.8,1.466,0.44,24.2,111.0552,27.61,28.66,16.65,0,111.1,13.16,28.46,145.8
"2010-05-29 01:37:00",153294,17.77,185.1,2.271,0.663,24.26,111.0243,27.53,28.63,16.4,0,111.1,13.16,28.38,147.1
"2010-05-29 01:37:30",153295,17.53,183.8,1.235,0.352,24.22,111.0131,27.5,28.57,16.28,0,111.1,13.16,28.35,145.8
"2010-05-29 01:38:00",153296,17.69,185.3,1.084,0.505,24.27,110.9906,27.44,28.53,16.29,0,111.1,13.16,28.29,147.3
"2010-05-29 01:38:30",153297,17.48,183.8,1.892,0.497,24.18,110.9856,27.43,28.47,16.4,0,111.1,13.16,28.28,145.8
"2010-05-29 01:39:00",153298,17.74,184.9,1.249,0.462,24.24,110.9659,27.38,28.46,16.68,0,111.1,13.16,28.22,146.9
"2010-05-29 01:39:30",153299,16.73,184.5,1.139,0.425,24.24,110.9541,27.35,28.42,16.78,0,111.1,13.16,28.19,146.5
"2010-05-29 01:40:00",153300,17.87,183.4,1.331,0.557,24.15,110.9541,27.35,28.4,16.8,0,111.1,13.17,28.19,145.4
"2010-05-29 01:40:30",153301,18.23,184.5,3.018,0.477,24.11,110.9439,27.32,28.36,17,0,111.1,13.17,28.17,146.5
"2010-05-29 01:41:00",153302,17.66,183.8,1.748,0.299,24.11,110.9266,27.28,28.32,17.09,0,111.1,13.17,28.12,145.8
"2010-05-29 01:41:30",153303,17.83,182,0.642,0.392,23.98,110.9301,27.29,28.3,17.34,0,111.1,13.17,28.13,144.0
"2010-05-29 01:42:00",153304,17.93,183.1,0.719,0.326,24.08,110.921,27.26,28.28,17.51,0,111.1,13.17,28.11,145.1
"2010-05-29 01:42:30",153305,17.66,182.1,1.081,0.266,23.95,110.9102,27.23,28.25,17.51,0,111.1,13.17,28.08,144.1
"2010-05-29 01:43:00",153306,17.71,182.9,1.041,0.86,24.03,110.9113,27.24,28.22,17.57,0,111.1,13.17,28.08,144.9
"2010-05-29 01:43:30",153307,17.69,183.1,1.314,0.46,23.99,110.9056,27.22,28.21,17.71,0,111.1,13.17,28.07,145.1
"2010-05-29 01:44:00",153308,17.98,183.5,3.147,0.531,24.04,110.8919,27.19,28.16,17.81,0,111.1,13.17,28.03,145.5
"2010-05-29 01:44:30",153309,17.35,183.9,2.627,0.641,23.98,110.8815,27.16,28.15,17.83,0,111.1,13.16,28.01,145.9
"2010-05-29 01:45:00",153310,18.33,185.2,1.463,0.412,24.2,110.8793,27.15,28.14,17.79,0,111.1,13.17,28.00,147.2
"2010-05-29 01:45:30",153311,17.72,184.2,1.341,0.389,24.09,110.8647,27.12,28.11,17.74,0,111.1,13.16,27.96,146.2
"2010-05-29 01:46:00",153312,17.75,183.9,1.756,0.482,24.1,110.8539,27.09,28.07,17.74,0,111.1,13.16,27.94,145.9
"2010-05-29 01:46:30",153313,17.31,184.8,2.325,0.649,24.09,110.8514,27.08,28.07,17.82,0,111.1,13.17,27.93,146.8
"2010-05-29 01:47:00",153314,17.31,185.3,1.83,0.809,24.14,110.8533,27.09,28.04,17.87,0,111.1,13.16,27.93,147.3
"2010-05-29 01:47:30",153315,17.88,186.8,1.107,0.471,24.32,110.8504,27.08,28.03,17.77,0,111.1,13.16,27.93,148.8